Regional Weather Roundup
Issued by NWS Huntsville, AL

Home | Current Version | Previous Version | Text Only | Print | Product List | Glossary On
Versions: 1 2 3 4 5 6 7 8 9 10 11 12 13 14 15 16 17 18 19 20 21 22 23 24 25 26 27 28 29 30 31 32 33 34 35 36 37 38 39 40 41 42 43 44 45 46 47 48 49 50
000
ASUS44 KHUN 280810
RWRHUN

WEATHER ROUNDUP FOR THE TENNESSEE VALLEY
NATIONAL WEATHER SERVICE HUNTSVILLE AL
300 AM CDT FRI APR 28 2017

ALZ001>004-280900-
NORTHWEST ALABAMA

CITY           SKY/WX    TMP DP  RH WIND       PRES   REMARKS
COURTLAND HCN    N/A     55 N/A N/A CALM        N/A
RUSSELLVILLE     N/A     54 N/A N/A MISG        N/A
SHOALS AIRPORT CLEAR     57  54  89 CALM      29.88S
SHOALS TVA RES   N/A     55 N/A N/A MISG        N/A
$$

ALZ005>007-016-280900-
NORTH CENTRAL ALABAMA

CITY           SKY/WX    TMP DP  RH WIND       PRES   REMARKS
CULLMAN AG STN   N/A     55 N/A N/A CALM        N/A
DECATUR AP     CLOUDY    58  57  97 E5        29.86F
HUNTSVILLE AP  CLOUDY    59  58  96 E6        29.86F
MERIDIANVILLE  PTCLDY    55  54  94 CALM      29.88S
REDSTONE ARSN  CLOUDY    57  57  97 S5        29.86F
VINEMONT AP    FAIR      61  56  85 SE6       29.89F
$$

ALZ008>010-280900-
NORTHEAST ALABAMA

CITY           SKY/WX    TMP DP  RH WIND       PRES   REMARKS
ALBERTVILLE    CLEAR     61  61 100 SE5       29.89F
FORT PAYNE     CLEAR     52  50  93 CALM      29.91F
SCOTTSBORO AP  CLEAR     55  55 100 CALM      29.91S
SCOTTSBORO HCN   N/A     55 N/A N/A MISG        N/A
VALLEY HEAD      N/A     52 N/A N/A MISG        N/A
$$

TNZ076-096-097-280900-
SOUTHEASTERN MIDDLE TENNESSEE

CITY           SKY/WX    TMP DP  RH WIND       PRES   REMARKS
TULLAHOMA      CLEAR     54  52  94 CALM      29.90S
WINCHESTER     CLEAR     54  52  94 CALM      29.89F
$$

...SURROUNDING SITES...

CITY           SKY/WX    TMP DP  RH WIND       PRES   REMARKS
ATLANTA        CLOUDY    68  67  96 SW6       29.94R FOG
ANNISTON       CLEAR     59  58  96 E3        29.91R
BIRMINGHAM     CLEAR     65  57  75 NE5       29.90F
CHATTANOOGA    CLEAR     58  55  90 CALM      29.92R
CORINTH        FAIR      54  52  94 CALM      29.85R
DALTON         CLEAR     54  54 100 CALM      29.92S
GADSDEN        CLEAR    N/A N/A N/A CALM      29.91S
GOLDEN TRNGL   CLEAR     59  52  77 E3        29.80F
HALEYVILLE     FAIR      57  54  89 SE3       29.88F
JACKSON TN     CLEAR     54  52  93 CALM      29.85S
MEMPHIS        CLOUDY    58  53  84 E7        29.79F
NASHVILLE      PTCLDY    53  51  93 CALM      29.90F
OXFORD MS      FAIR      55  52  88 SE7       29.82F
ROME           CLEAR     56  53  90 CALM      29.91S
SAVANNAH       CLEAR     54  52  94 CALM      29.85S
TUPELO         CLEAR     56  53  90 CALM      29.83F
TUSCALOOSA     CLEAR     59  58  96 CALM      29.85F
$$

...GULF COAST WEATHER...

CITY           SKY/WX    TMP DP  RH WIND       PRES   REMARKS
GULFPORT       CLOUDY    77  74  90 S13       29.80F
PASCAGOULA     CLOUDY    76  72  87 SE9       29.83S
MOBILE         MOCLDY    75  71  87 S14       29.84F
GULF SHORES    CLOUDY    74  74 100 SE10G20   29.85F
PENSACOLA      CLOUDY    76  73  91 S14       29.85F
DESTIN         CLOUDY    77  77 100 S7        29.88F FOG
PANAMA CITY    CLOUDY    74  73  96 SE12      29.91F
APPALACHICOLA  CLOUDY    74  74 100 SW8       29.92S FOG
$$




USA.gov is the U.S. government's official web portal to all federal, state and local government web resources and services.